Time,TemperatureF,DewpointF,PressureIn,WindDirection,WindDirectionDegrees,WindSpeedMPH,WindSpeedGustMPH,Humidity,HourlyPrecipIn,Conditions,Clouds,dailyrainin,SoftwareType,DateUTC
2013-07-31 00:00:00,73.3,66.7,30.06,West,266,0.0,0.0,80,0.00,,,0.00,LWC V2.00 B2112,2013-07-31 04:00:00,
2013-07-31 00:05:00,73.2,66.6,30.06,West,266,0.0,0.0,80,0.00,,,0.00,LWC V2.00 B2112,2013-07-31 04:05:00,
2013-07-31 00:10:00,73.2,67.0,30.06,West,266,0.0,0.0,81,0.00,,,0.00,LWC V2.00 B2112,2013-07-31 04:10:00,
2013-07-31 00:15:00,73.0,66.8,30.06,West,266,0.0,0.0,81,0.00,,,0.00,LWC V2.00 B2112,2013-07-31 04:15:00,
2013-07-31 00:20:00,73.0,67.2,30.06,West,266,0.0,0.0,82,0.00,,,0.00,LWC V2.00 B2112,2013-07-31 04:20:00,
2013-07-31 00:25:00,73.0,67.5,30.06,West,266,0.0,0.0,83,0.00,,,0.00,LWC V2.00 B2112,2013-07-31 04:25:00,
2013-07-31 00:30:00,72.8,67.7,30.06,West,266,0.0,0.0,84,0.00,,,0.00,LWC V2.00 B2112,2013-07-31 04:30:00,
2013-07-31 00:35:00,72.8,67.7,30.06,West,266,0.0,0.0,84,0.00,,,0.00,LWC V2.00 B2112,2013-07-31 04:35:00,
2013-07-31 00:40:00,72.7,67.6,30.06,West,266,0.0,0.0,84,0.00,,,0.00,LWC V2.00 B2112,2013-07-31 04:40:00,
2013-07-31 00:45:00,72.7,67.6,30.06,West,266,0.0,0.0,84,0.00,,,0.00,LWC V2.00 B2112,2013-07-31 04:45:00,
2013-07-31 00:50:00,72.5,67.7,30.06,West,266,0.0,0.0,85,0.00,,,0.00,LWC V2.00 B2112,2013-07-31 04:50:00,
2013-07-31 00:55:00,72.3,67.9,30.06,West,266,0.0,0.0,86,0.00,,,0.00,LWC V2.00 B2112,2013-07-31 04:55:00,
2013-07-31 01:00:00,72.3,67.9,30.06,West,266,0.0,0.0,86,0.00,,,0.00,LWC V2.00 B2112,2013-07-31 05:00:00,
2013-07-31 01:05:00,72.1,67.7,30.05,West,266,0.0,0.0,86,0.00,,,0.00,LWC V2.00 B2112,2013-07-31 05:05:00,
2013-07-31 01:10:00,72.0,67.9,30.05,West,266,0.0,0.0,87,0.00,,,0.00,LWC V2.00 B2112,2013-07-31 05:10:00,
2013-07-31 01:15:00,72.0,67.9,30.05,West,266,0.0,0.0,87,0.00,,,0.00,LWC V2.00 B2112,2013-07-31 05:15:00,
2013-07-31 01:20:00,71.8,67.7,30.05,West,266,0.0,0.0,87,0.00,,,0.00,LWC V2.00 B2112,2013-07-31 05:20:00,
2013-07-31 01:25:00,71.8,68.0,30.05,West,266,0.0,0.0,88,0.00,,,0.00,LWC V2.00 B2112,2013-07-31 05:25:00,
2013-07-31 01:30:00,71.8,68.0,30.05,West,266,0.0,0.0,88,0.00,,,0.00,LWC V2.00 B2112,2013-07-31 05:30:00,
2013-07-31 01:35:00,71.6,67.8,30.05,West,266,0.0,0.0,88,0.00,,,0.00,LWC V2.00 B2112,2013-07-31 05:35:00,
2013-07-31 01:40:00,71.6,67.8,30.05,West,266,0.0,0.0,88,0.00,,,0.00,LWC V2.00 B2112,2013-07-31 05:40:00,
2013-07-31 01:45:00,71.5,68.1,30.05,West,266,0.0,0.0,89,0.00,,,0.00,LWC V2.00 B2112,2013-07-31 05:45:00,
2013-07-31 01:50:00,71.5,68.1,30.05,West,266,0.0,0.0,89,0.00,,,0.00,LWC V2.00 B2112,2013-07-31 05:50:00,
2013-07-31 01:55:00,71.5,68.1,30.05,West,266,0.0,0.0,89,0.00,,,0.00,LWC V2.00 B2112,2013-07-31 05:55:00,
2013-07-31 02:00:00,71.5,68.4,30.05,West,266,0.0,0.0,90,0.00,,,0.00,LWC V2.00 B2112,2013-07-31 06:00:00,
2013-07-31 02:05:00,71.3,68.2,30.05,West,266,0.0,0.0,90,0.00,,,0.00,LWC V2.00 B2112,2013-07-31 06:05:00,
2013-07-31 02:10:00,71.3,68.2,30.05,West,266,0.0,0.0,90,0.00,,,0.00,LWC V2.00 B2112,2013-07-31 06:10:00,
2013-07-31 02:15:00,71.3,68.2,30.05,West,266,0.0,0.0,90,0.00,,,0.00,LWC V2.00 B2112,2013-07-31 06:15:00,
2013-07-31 02:20:00,71.3,68.5,30.05,West,266,0.0,0.0,91,0.00,,,0.00,LWC V2.00 B2112,2013-07-31 06:20:00,
2013-07-31 02:25:00,71.3,68.5,30.05,West,266,0.0,0.0,91,0.00,,,0.00,LWC V2.00 B2112,2013-07-31 06:25:00,
2013-07-31 02:30:00,71.3,68.5,30.05,West,266,0.0,0.0,91,0.00,,,0.00,LWC V2.00 B2112,2013-07-31 06:30:00,
2013-07-31 02:35:00,71.3,68.5,30.04,West,266,0.0,0.0,91,0.00,,,0.00,LWC V2.00 B2112,2013-07-31 06:35:00,
2013-07-31 02:40:00,71.3,68.5,30.04,West,266,0.0,0.0,91,0.00,,,0.00,LWC V2.00 B2112,2013-07-31 06:40:00,
2013-07-31 02:45:00,71.3,68.5,30.04,West,266,0.0,0.0,91,0.00,,,0.00,LWC V2.00 B2112,2013-07-31 06:45:00,
2013-07-31 02:50:00,71.3,68.5,30.04,West,266,0.0,0.0,91,0.00,,,0.00,LWC V2.00 B2112,2013-07-31 06:50:00,
2013-07-31 02:55:00,71.3,68.8,30.04,West,266,0.0,0.0,92,0.00,,,0.00,LWC V2.00 B2112,2013-07-31 06:55:00,
2013-07-31 03:00:00,71.5,69.0,30.04,West,266,0.0,0.0,92,0.00,,,0.00,LWC V2.00 B2112,2013-07-31 07:00:00,
2013-07-31 03:05:00,71.5,69.0,30.04,West,266,0.0,0.0,92,0.00,,,0.00,LWC V2.00 B2112,2013-07-31 07:05:00,
2013-07-31 03:10:00,71.5,69.0,30.04,West,266,0.0,0.0,92,0.00,,,0.00,LWC V2.00 B2112,2013-07-31 07:10:00,
2013-07-31 03:15:00,71.5,69.0,30.04,West,266,0.0,0.0,92,0.00,,,0.00,LWC V2.00 B2112,2013-07-31 07:15:00,
2013-07-31 03:20:00,71.5,69.0,30.04,West,266,0.0,0.0,92,0.00,,,0.00,LWC V2.00 B2112,2013-07-31 07:20:00,
2013-07-31 03:25:00,71.5,69.0,30.04,West,266,0.0,0.0,92,0.00,,,0.00,LWC V2.00 B2112,2013-07-31 07:25:00,
2013-07-31 03:30:00,71.5,69.0,30.04,West,266,0.0,0.0,92,0.00,,,0.00,LWC V2.00 B2112,2013-07-31 07:30:00,
2013-07-31 03:35:00,71.5,69.0,30.04,West,266,0.0,0.0,92,0.00,,,0.00,LWC V2.00 B2112,2013-07-31 07:35:00,
2013-07-31 03:40:00,71.5,69.0,30.04,West,266,0.0,0.0,92,0.00,,,0.00,LWC V2.00 B2112,2013-07-31 07:40:00,
2013-07-31 03:45:00,71.5,69.0,30.04,West,266,0.0,0.0,92,0.00,,,0.00,LWC V2.00 B2112,2013-07-31 07:45:00,
2013-07-31 03:50:00,71.5,69.0,30.04,West,266,0.0,0.0,92,0.00,,,0.00,LWC V2.00 B2112,2013-07-31 07:50:00,
2013-07-31 03:55:00,71.5,69.0,30.04,West,266,0.0,0.0,92,0.00,,,0.00,LWC V2.00 B2112,2013-07-31 07:55:00,
2013-07-31 04:00:00,71.3,68.8,30.04,West,266,0.0,0.0,92,0.00,,,0.00,LWC V2.00 B2112,2013-07-31 08:00:00,
2013-07-31 04:05:00,71.3,69.2,30.04,West,266,0.0,0.0,93,0.00,,,0.00,LWC V2.00 B2112,2013-07-31 08:05:00,
2013-07-31 04:10:00,71.3,69.2,30.04,West,266,0.0,0.0,93,0.00,,,0.00,LWC V2.00 B2112,2013-07-31 08:10:00,
2013-07-31 04:15:00,71.1,69.0,30.04,West,266,0.0,0.0,93,0.00,,,0.00,LWC V2.00 B2112,2013-07-31 08:15:00,
2013-07-31 04:20:00,71.1,69.0,30.04,West,266,0.0,0.0,93,0.00,,,0.00,LWC V2.00 B2112,2013-07-31 08:20:00,
2013-07-31 04:25:00,71.1,69.0,30.04,West,266,0.0,0.0,93,0.00,,,0.00,LWC V2.00 B2112,2013-07-31 08:25:00,
2013-07-31 04:30:00,71.1,69.0,30.04,West,266,0.0,0.0,93,0.00,,,0.00,LWC V2.00 B2112,2013-07-31 08:30:00,
2013-07-31 04:35:00,70.9,69.1,30.04,West,266,0.0,0.0,94,0.00,,,0.00,LWC V2.00 B2112,2013-07-31 08:35:00,
2013-07-31 04:40:00,70.9,69.1,30.04,West,266,0.0,0.0,94,0.00,,,0.00,LWC V2.00 B2112,2013-07-31 08:40:00,
2013-07-31 04:45:00,70.9,69.1,30.04,West,266,0.0,0.0,94,0.00,,,0.00,LWC V2.00 B2112,2013-07-31 08:45:00,
2013-07-31 04:50:00,70.8,69.0,30.04,West,266,0.0,0.0,94,0.00,,,0.00,LWC V2.00 B2112,2013-07-31 08:50:00,
2013-07-31 04:55:00,70.8,69.0,30.04,West,266,0.0,0.0,94,0.00,,,0.00,LWC V2.00 B2112,2013-07-31 08:55:00,
2013-07-31 05:00:00,70.6,69.1,30.04,West,266,0.0,0.0,95,0.00,,,0.00,LWC V2.00 B2112,2013-07-31 09:00:00,
2013-07-31 05:05:00,70.6,69.1,30.04,West,266,0.0,0.0,95,0.00,,,0.00,LWC V2.00 B2112,2013-07-31 09:05:00,
2013-07-31 05:10:00,70.6,69.1,30.04,West,266,0.0,0.0,95,0.00,,,0.00,LWC V2.00 B2112,2013-07-31 09:10:00,
2013-07-31 05:15:00,70.6,69.1,30.04,West,266,0.0,0.0,95,0.00,,,0.00,LWC V2.00 B2112,2013-07-31 09:15:00,
2013-07-31 05:20:00,70.6,69.1,30.04,West,266,0.0,0.0,95,0.00,,,0.00,LWC V2.00 B2112,2013-07-31 09:20:00,
2013-07-31 05:25:00,70.6,69.4,30.04,West,266,0.0,0.0,96,0.00,,,0.00,LWC V2.00 B2112,2013-07-31 09:25:00,
2013-07-31 05:30:00,70.6,69.4,30.04,West,266,0.0,0.0,96,0.00,,,0.00,LWC V2.00 B2112,2013-07-31 09:30:00,
2013-07-31 05:35:00,70.6,69.4,30.04,West,266,0.0,0.0,96,0.00,,,0.00,LWC V2.00 B2112,2013-07-31 09:35:00,
2013-07-31 05:40:00,70.6,69.4,30.04,West,266,0.0,0.0,96,0.00,,,0.00,LWC V2.00 B2112,2013-07-31 09:40:00,
2013-07-31 05:45:00,70.6,69.4,30.04,West,266,0.0,0.0,96,0.00,,,0.00,LWC V2.00 B2112,2013-07-31 09:45:00,
2013-07-31 05:50:00,70.6,69.4,30.04,West,266,0.0,0.0,96,0.00,,,0.00,LWC V2.00 B2112,2013-07-31 09:50:00,
2013-07-31 05:55:00,70.4,69.2,30.04,West,266,0.0,0.0,96,0.00,,,0.00,LWC V2.00 B2112,2013-07-31 09:55:00,
2013-07-31 06:00:00,70.4,69.2,30.04,West,266,0.0,0.0,96,0.00,,,0.00,LWC V2.00 B2112,2013-07-31 10:00:00,
2013-07-31 06:05:00,70.4,69.2,30.05,West,266,0.0,0.0,96,0.00,,,0.00,LWC V2.00 B2112,2013-07-31 10:05:00,
2013-07-31 06:10:00,70.6,69.4,30.05,West,266,0.0,0.0,96,0.00,,,0.00,LWC V2.00 B2112,2013-07-31 10:10:00,
2013-07-31 06:15:00,70.6,69.4,30.05,West,266,0.0,0.0,96,0.00,,,0.00,LWC V2.00 B2112,2013-07-31 10:15:00,
2013-07-31 06:20:00,70.6,69.4,30.05,West,266,0.0,0.0,96,0.00,,,0.00,LWC V2.00 B2112,2013-07-31 10:20:00,
2013-07-31 06:25:00,70.8,69.6,30.05,West,266,0.0,0.0,96,0.00,,,0.00,LWC V2.00 B2112,2013-07-31 10:25:00,
2013-07-31 06:30:00,70.8,69.6,30.05,West,266,0.0,0.0,96,0.00,,,0.00,LWC V2.00 B2112,2013-07-31 10:30:00,
2013-07-31 06:35:00,70.8,69.6,30.05,West,266,0.0,0.0,96,0.00,,,0.00,LWC V2.00 B2112,2013-07-31 10:35:00,
2013-07-31 06:40:00,70.8,69.6,30.05,West,266,0.0,0.0,96,0.00,,,0.00,LWC V2.00 B2112,2013-07-31 10:40:00,
2013-07-31 06:45:00,70.8,69.6,30.05,West,264,0.0,0.0,96,0.00,,,0.00,LWC V2.00 B2112,2013-07-31 10:45:00,
2013-07-31 06:50:00,70.9,69.7,30.05,NNW,336,0.0,0.0,96,0.00,,,0.00,LWC V2.00 B2112,2013-07-31 10:50:00,
2013-07-31 06:55:00,70.9,70.0,30.05,NNW,336,0.0,0.0,97,0.00,,,0.00,LWC V2.00 B2112,2013-07-31 10:55:00,
2013-07-31 07:00:00,70.9,70.0,30.05,NNW,336,0.0,0.0,97,0.00,,,0.00,LWC V2.00 B2112,2013-07-31 11:00:00,
2013-07-31 07:05:00,70.9,70.0,30.05,NNW,336,0.0,0.0,97,0.00,,,0.00,LWC V2.00 B2112,2013-07-31 11:05:00,
2013-07-31 07:10:00,70.9,70.0,30.05,NNW,336,0.0,0.0,97,0.00,,,0.00,LWC V2.00 B2112,2013-07-31 11:10:00,
2013-07-31 07:15:00,71.1,70.2,30.05,NNW,336,0.0,0.0,97,0.00,,,0.00,LWC V2.00 B2112,2013-07-31 11:15:00,
2013-07-31 07:20:00,71.1,70.2,30.06,NNW,336,0.0,0.0,97,0.00,,,0.00,LWC V2.00 B2112,2013-07-31 11:20:00,
2013-07-31 07:25:00,71.5,70.6,30.06,NNW,336,0.0,0.0,97,0.00,,,0.00,LWC V2.00 B2112,2013-07-31 11:25:00,
2013-07-31 07:30:00,71.6,70.7,30.06,NNW,336,0.0,0.0,97,0.00,,,0.00,LWC V2.00 B2112,2013-07-31 11:30:00,
2013-07-31 07:35:00,71.8,70.9,30.06,NNW,336,0.0,0.0,97,0.00,,,0.00,LWC V2.00 B2112,2013-07-31 11:35:00,
2013-07-31 07:40:00,71.8,70.9,30.06,NNW,336,0.0,0.0,97,0.00,,,0.00,LWC V2.00 B2112,2013-07-31 11:40:00,
2013-07-31 07:45:00,72.0,71.1,30.06,NNW,336,0.0,0.0,97,0.00,,,0.00,LWC V2.00 B2112,2013-07-31 11:45:00,
2013-07-31 07:50:00,72.1,71.2,30.06,NNW,336,0.0,0.0,97,0.00,,,0.00,LWC V2.00 B2112,2013-07-31 11:50:00,
2013-07-31 07:55:00,72.5,71.6,30.06,NNW,336,0.0,0.0,97,0.00,,,0.00,LWC V2.00 B2112,2013-07-31 11:55:00,
2013-07-31 08:00:00,72.5,71.6,30.06,NNW,336,0.0,0.0,97,0.00,,,0.00,LWC V2.00 B2112,2013-07-31 12:00:00,
2013-07-31 08:05:00,72.7,71.8,30.06,NNW,336,0.0,0.0,97,0.00,,,0.00,LWC V2.00 B2112,2013-07-31 12:05:00,
2013-07-31 08:10:00,72.8,71.9,30.06,NNW,336,0.0,0.0,97,0.00,,,0.00,LWC V2.00 B2112,2013-07-31 12:10:00,
2013-07-31 08:15:00,72.8,71.6,30.06,NNW,336,0.0,0.0,96,0.00,,,0.00,LWC V2.00 B2112,2013-07-31 12:15:00,
2013-07-31 08:20:00,72.8,71.6,30.05,NNW,336,0.0,0.0,96,0.00,,,0.00,LWC V2.00 B2112,2013-07-31 12:20:00,
2013-07-31 08:25:00,72.8,71.6,30.05,NNW,336,0.0,0.0,96,0.00,,,0.00,LWC V2.00 B2112,2013-07-31 12:25:00,
2013-07-31 08:30:00,73.0,71.8,30.05,NNW,336,0.0,0.0,96,0.00,,,0.00,LWC V2.00 B2112,2013-07-31 12:30:00,
2013-07-31 08:35:00,73.2,72.0,30.05,NNW,336,0.0,0.0,96,0.00,,,0.00,LWC V2.00 B2112,2013-07-31 12:35:00,
2013-07-31 08:40:00,73.3,72.1,30.05,NNW,336,0.0,0.0,96,0.00,,,0.00,LWC V2.00 B2112,2013-07-31 12:40:00,
2013-07-31 08:45:00,73.5,72.3,30.05,NNW,336,0.0,0.0,96,0.00,,,0.00,LWC V2.00 B2112,2013-07-31 12:45:00,
2013-07-31 08:50:00,73.7,72.5,30.06,NNW,336,0.0,0.0,96,0.00,,,0.00,LWC V2.00 B2112,2013-07-31 12:50:00,
2013-07-31 08:55:00,73.9,72.7,30.06,NNW,336,0.0,0.0,96,0.00,,,0.00,LWC V2.00 B2112,2013-07-31 12:55:00,
2013-07-31 09:00:00,74.0,72.5,30.06,NNW,336,0.0,0.0,95,0.00,,,0.00,LWC V2.00 B2112,2013-07-31 13:00:00,
2013-07-31 09:05:00,74.4,72.9,30.06,South,181,0.0,0.0,95,0.00,,,0.00,LWC V2.00 B2112,2013-07-31 13:05:00,
2013-07-31 09:10:00,74.7,72.9,30.06,South,181,0.0,0.0,94,0.00,,,0.00,LWC V2.00 B2112,2013-07-31 13:10:00,
2013-07-31 09:15:00,75.4,73.5,30.06,South,181,0.0,0.0,94,0.00,,,0.00,LWC V2.00 B2112,2013-07-31 13:15:00,
2013-07-31 09:20:00,76.1,73.9,30.05,South,181,0.0,0.0,93,0.00,,,0.00,LWC V2.00 B2112,2013-07-31 13:20:00,
2013-07-31 09:25:00,76.5,73.7,30.05,South,181,0.0,0.0,91,0.00,,,0.00,LWC V2.00 B2112,2013-07-31 13:25:00,
2013-07-31 09:30:00,76.8,73.3,30.05,South,181,0.0,0.0,89,0.00,,,0.00,LWC V2.00 B2112,2013-07-31 13:30:00,
2013-07-31 09:35:00,77.2,73.0,30.05,South,181,0.0,0.0,87,0.00,,,0.00,LWC V2.00 B2112,2013-07-31 13:35:00,
2013-07-31 09:40:00,77.4,73.2,30.05,West,269,0.0,0.0,87,0.00,,,0.00,LWC V2.00 B2112,2013-07-31 13:40:00,
2013-07-31 09:45:00,77.7,73.5,30.05,West,269,0.0,0.0,87,0.00,,,0.00,LWC V2.00 B2112,2013-07-31 13:45:00,
2013-07-31 09:50:00,77.7,72.5,30.04,WSW,256,0.0,0.0,84,0.00,,,0.00,LWC V2.00 B2112,2013-07-31 13:50:00,
2013-07-31 09:55:00,77.7,72.5,30.04,WSW,256,0.0,0.0,84,0.00,,,0.00,LWC V2.00 B2112,2013-07-31 13:55:00,
2013-07-31 10:00:00,77.7,72.5,30.04,WSW,257,0.0,0.0,84,0.00,,,0.00,LWC V2.00 B2112,2013-07-31 14:00:00,
2013-07-31 10:05:00,77.9,73.4,30.04,West,267,0.0,0.0,86,0.00,,,0.00,LWC V2.00 B2112,2013-07-31 14:05:00,
2013-07-31 10:10:00,78.5,73.2,30.04,WSW,258,0.0,0.0,84,0.00,,,0.00,LWC V2.00 B2112,2013-07-31 14:10:00,
2013-07-31 10:15:00,79.2,73.9,30.04,WSW,258,0.0,0.0,84,0.00,,,0.00,LWC V2.00 B2112,2013-07-31 14:15:00,
2013-07-31 10:20:00,79.8,72.7,30.04,SW,223,0.0,0.0,79,0.00,,,0.00,LWC V2.00 B2112,2013-07-31 14:20:00,
2013-07-31 10:25:00,80.1,72.6,30.04,SW,220,0.0,0.0,78,0.00,,,0.00,LWC V2.00 B2112,2013-07-31 14:25:00,
2013-07-31 10:30:00,80.3,72.8,30.04,SW,220,0.0,0.0,78,0.00,,,0.00,LWC V2.00 B2112,2013-07-31 14:30:00,
2013-07-31 10:35:00,80.3,72.8,30.05,SW,233,0.0,0.0,78,0.00,,,0.00,LWC V2.00 B2112,2013-07-31 14:35:00,
2013-07-31 10:40:00,80.3,72.4,30.05,NW,304,0.0,0.0,77,0.00,,,0.00,LWC V2.00 B2112,2013-07-31 14:40:00,
2013-07-31 10:45:00,80.1,71.4,30.05,NW,306,0.0,0.0,75,0.00,,,0.00,LWC V2.00 B2112,2013-07-31 14:45:00,
2013-07-31 10:50:00,80.3,72.0,30.05,West,267,0.0,0.0,76,0.00,,,0.00,LWC V2.00 B2112,2013-07-31 14:50:00,
2013-07-31 10:55:00,80.3,71.6,30.05,WSW,247,0.0,0.0,75,0.00,,,0.00,LWC V2.00 B2112,2013-07-31 14:55:00,
2013-07-31 11:00:00,80.5,71.8,30.05,WSW,246,0.0,0.0,75,0.00,,,0.00,LWC V2.00 B2112,2013-07-31 15:00:00,
2013-07-31 11:05:00,80.7,72.0,30.05,WSW,247,0.0,0.0,75,0.00,,,0.00,LWC V2.00 B2112,2013-07-31 15:05:00,
2013-07-31 11:10:00,80.7,72.0,30.05,WSW,245,0.0,0.0,75,0.00,,,0.00,LWC V2.00 B2112,2013-07-31 15:10:00,
2013-07-31 11:15:00,80.9,71.8,30.05,West,271,0.0,0.0,74,0.00,,,0.00,LWC V2.00 B2112,2013-07-31 15:15:00,
2013-07-31 11:20:00,80.7,72.0,30.05,WNW,300,0.0,0.0,75,0.00,,,0.00,LWC V2.00 B2112,2013-07-31 15:20:00,
2013-07-31 11:25:00,80.7,71.2,30.05,South,181,0.0,0.0,73,0.00,,,0.00,LWC V2.00 B2112,2013-07-31 15:25:00,
2013-07-31 11:30:00,80.7,70.8,30.05,SW,225,0.0,0.0,72,0.00,,,0.00,LWC V2.00 B2112,2013-07-31 15:30:00,
2013-07-31 11:35:00,80.5,71.0,30.05,SW,223,0.0,0.0,73,0.00,,,0.00,LWC V2.00 B2112,2013-07-31 15:35:00,
2013-07-31 11:40:00,80.7,71.6,30.05,WSW,240,0.0,0.0,74,0.00,,,0.00,LWC V2.00 B2112,2013-07-31 15:40:00,
2013-07-31 11:50:00,80.9,69.3,30.04,SSW,203,0.0,0.0,68,0.00,,,0.00,LWC V2.00 B2112,2013-07-31 15:50:00,
2013-07-31 11:55:00,81.2,70.5,30.04,WNW,288,0.0,0.0,70,0.00,,,0.00,LWC V2.00 B2112,2013-07-31 15:55:00,
2013-07-31 12:00:00,81.4,70.7,30.04,WNW,288,0.0,0.0,70,0.00,,,0.00,LWC V2.00 B2112,2013-07-31 16:00:00,
2013-07-31 12:05:00,81.4,71.5,30.04,SSW,200,0.0,0.0,72,0.00,,,0.00,LWC V2.00 B2112,2013-07-31 16:05:00,
2013-07-31 12:10:00,81.2,69.2,30.04,SE,139,0.0,0.0,67,0.00,,,0.00,LWC V2.00 B2112,2013-07-31 16:10:00,
2013-07-31 12:15:00,81.1,70.4,30.04,SE,139,0.0,0.0,70,0.00,,,0.00,LWC V2.00 B2112,2013-07-31 16:15:00,
2013-07-31 12:20:00,81.1,69.9,30.03,WNW,286,0.0,0.0,69,0.00,,,0.00,LWC V2.00 B2112,2013-07-31 16:20:00,
2013-07-31 12:25:00,81.2,69.2,30.03,WNW,286,0.0,0.0,67,0.00,,,0.00,LWC V2.00 B2112,2013-07-31 16:25:00,
2013-07-31 12:35:00,81.4,71.1,30.03,SE,138,0.0,0.0,71,0.00,,,0.00,LWC V2.00 B2112,2013-07-31 16:35:00,
2013-07-31 12:40:00,81.4,70.2,30.03,SE,138,0.0,0.0,69,0.00,,,0.00,LWC V2.00 B2112,2013-07-31 16:40:00,
2013-07-31 12:50:00,81.6,70.8,30.03,WNW,289,0.0,0.0,70,0.00,,,0.00,LWC V2.00 B2112,2013-07-31 16:50:00,
2013-07-31 12:55:00,81.8,71.5,30.03,SSW,211,0.0,0.0,71,0.00,,,0.00,LWC V2.00 B2112,2013-07-31 16:55:00,
2013-07-31 13:00:00,82.2,71.4,30.03,SSW,205,0.0,0.0,70,0.00,,,0.00,LWC V2.00 B2112,2013-07-31 17:00:00,
2013-07-31 13:05:00,82.6,71.8,30.02,SSW,205,0.0,0.0,70,0.00,,,0.00,LWC V2.00 B2112,2013-07-31 17:05:00,
2013-07-31 13:10:00,82.8,72.4,30.02,NNW,330,0.0,0.0,71,0.00,,,0.00,LWC V2.00 B2112,2013-07-31 17:10:00,
2013-07-31 13:15:00,83.0,71.3,30.02,SSW,212,0.0,0.0,68,0.00,,,0.00,LWC V2.00 B2112,2013-07-31 17:15:00,
2013-07-31 13:20:00,83.0,71.8,30.02,SW,217,0.0,0.0,69,0.00,,,0.00,LWC V2.00 B2112,2013-07-31 17:20:00,
2013-07-31 13:25:00,82.8,70.7,30.02,SSW,212,0.0,0.0,67,0.00,,,0.00,LWC V2.00 B2112,2013-07-31 17:25:00,
2013-07-31 13:30:00,82.4,69.9,30.02,SW,226,0.0,0.0,66,0.00,,,0.00,LWC V2.00 B2112,2013-07-31 17:30:00,
2013-07-31 13:35:00,82.4,70.8,30.01,SW,226,0.0,0.0,68,0.00,,,0.00,LWC V2.00 B2112,2013-07-31 17:35:00,
2013-07-31 13:40:00,82.4,70.3,30.01,SW,223,0.0,0.0,67,0.00,,,0.00,LWC V2.00 B2112,2013-07-31 17:40:00,
2013-07-31 13:45:00,82.2,69.7,30.01,SW,232,0.0,0.0,66,0.00,,,0.00,LWC V2.00 B2112,2013-07-31 17:45:00,
2013-07-31 13:50:00,82.2,71.0,30.01,SW,232,0.0,0.0,69,0.00,,,0.00,LWC V2.00 B2112,2013-07-31 17:50:00,
2013-07-31 13:55:00,82.0,68.1,30.01,SSW,212,0.0,0.0,63,0.00,,,0.00,LWC V2.00 B2112,2013-07-31 17:55:00,
2013-07-31 14:00:00,82.0,69.0,30.01,SSW,211,0.0,0.0,65,0.00,,,0.00,LWC V2.00 B2112,2013-07-31 18:00:00,
2013-07-31 14:05:00,81.8,70.2,30.01,SW,215,0.0,0.0,68,0.00,,,0.00,LWC V2.00 B2112,2013-07-31 18:05:00,
2013-07-31 14:10:00,81.6,70.4,30.01,SSW,193,0.0,0.0,69,0.00,,,0.00,LWC V2.00 B2112,2013-07-31 18:10:00,
2013-07-31 14:15:00,81.4,70.7,30.01,South,184,0.0,0.0,70,0.00,,,0.00,LWC V2.00 B2112,2013-07-31 18:15:00,
2013-07-31 14:20:00,81.2,71.3,30.01,South,184,0.0,0.0,72,0.00,,,0.00,LWC V2.00 B2112,2013-07-31 18:20:00,
2013-07-31 14:25:00,81.1,70.8,30.01,SSE,163,0.0,0.0,71,0.00,,,0.00,LWC V2.00 B2112,2013-07-31 18:25:00,
2013-07-31 14:30:00,80.3,70.0,30.01,SSW,207,0.0,0.0,71,0.00,,,0.00,LWC V2.00 B2112,2013-07-31 18:30:00,
2013-07-31 14:35:00,79.6,69.8,30.01,WSW,242,0.0,1.0,72,0.00,,,0.00,LWC V2.00 B2112,2013-07-31 18:35:00,
2013-07-31 14:40:00,77.9,69.3,30.01,SW,226,0.0,0.0,75,0.00,,,0.00,LWC V2.00 B2112,2013-07-31 18:40:00,
2013-07-31 14:45:00,76.1,68.3,30.01,West,276,0.0,0.0,77,1.97,,,0.04,LWC V2.00 B2112,2013-07-31 18:45:00,
2013-07-31 14:50:00,75.3,68.7,30.01,West,276,0.0,0.0,80,0.51,,,0.11,LWC V2.00 B2112,2013-07-31 18:50:00,
2013-07-31 14:55:00,74.2,68.3,30.01,West,277,0.0,0.0,82,0.22,,,0.13,LWC V2.00 B2112,2013-07-31 18:55:00,
2013-07-31 15:00:00,73.0,68.9,30.01,West,276,0.0,0.0,87,0.15,,,0.14,LWC V2.00 B2112,2013-07-31 19:00:00,
2013-07-31 15:05:00,72.5,69.4,30.01,West,276,0.0,0.0,90,0.07,,,0.14,LWC V2.00 B2112,2013-07-31 19:05:00,
2013-07-31 15:10:00,72.5,70.0,30.01,West,276,0.0,0.0,92,0.04,,,0.14,LWC V2.00 B2112,2013-07-31 19:10:00,
2013-07-31 15:15:00,72.7,70.6,30.01,West,276,0.0,0.0,93,0.00,,,0.14,LWC V2.00 B2112,2013-07-31 19:15:00,
2013-07-31 15:20:00,72.7,70.6,30.00,West,276,0.0,0.0,93,0.00,,,0.14,LWC V2.00 B2112,2013-07-31 19:20:00,
2013-07-31 15:25:00,72.8,70.7,30.00,West,276,0.0,0.0,93,0.00,,,0.14,LWC V2.00 B2112,2013-07-31 19:25:00,
2013-07-31 15:30:00,73.0,71.2,30.00,West,276,0.0,0.0,94,0.00,,,0.14,LWC V2.00 B2112,2013-07-31 19:30:00,
2013-07-31 15:35:00,73.3,71.5,29.99,West,276,0.0,0.0,94,0.00,,,0.14,LWC V2.00 B2112,2013-07-31 19:35:00,
2013-07-31 15:40:00,73.9,72.4,29.99,West,276,0.0,0.0,95,0.00,,,0.14,LWC V2.00 B2112,2013-07-31 19:40:00,
2013-07-31 15:45:00,74.2,72.7,29.99,West,276,0.0,0.0,95,0.00,,,0.14,LWC V2.00 B2112,2013-07-31 19:45:00,
2013-07-31 15:50:00,74.2,72.7,29.98,West,276,0.0,0.0,95,0.00,,,0.14,LWC V2.00 B2112,2013-07-31 19:50:00,
2013-07-31 15:55:00,74.4,72.9,29.98,West,276,0.0,0.0,95,0.00,,,0.14,LWC V2.00 B2112,2013-07-31 19:55:00,
2013-07-31 16:00:00,74.6,73.1,29.98,West,276,0.0,0.0,95,0.00,,,0.14,LWC V2.00 B2112,2013-07-31 20:00:00,
2013-07-31 16:05:00,74.9,73.4,29.98,West,276,0.0,0.0,95,0.00,,,0.14,LWC V2.00 B2112,2013-07-31 20:05:00,
2013-07-31 16:10:00,74.9,73.1,29.98,West,276,0.0,0.0,94,0.00,,,0.14,LWC V2.00 B2112,2013-07-31 20:10:00,
2013-07-31 16:15:00,74.6,72.1,29.98,West,276,0.0,0.0,92,0.00,,,0.14,LWC V2.00 B2112,2013-07-31 20:15:00,
2013-07-31 16:20:00,74.2,71.1,29.97,West,276,0.0,0.0,90,0.00,,,0.14,LWC V2.00 B2112,2013-07-31 20:20:00,
2013-07-31 16:25:00,73.9,70.8,29.97,West,276,0.0,0.0,90,0.00,,,0.14,LWC V2.00 B2112,2013-07-31 20:25:00,
2013-07-31 16:30:00,73.9,71.1,29.97,West,276,0.0,0.0,91,0.00,,,0.14,LWC V2.00 B2112,2013-07-31 20:30:00,
2013-07-31 16:35:00,73.9,71.4,29.97,West,276,0.0,0.0,92,0.00,,,0.14,LWC V2.00 B2112,2013-07-31 20:35:00,
2013-07-31 16:40:00,73.9,71.4,29.97,West,276,0.0,0.0,92,0.00,,,0.14,LWC V2.00 B2112,2013-07-31 20:40:00,
2013-07-31 16:45:00,73.9,71.4,29.97,West,276,0.0,0.0,92,0.00,,,0.14,LWC V2.00 B2112,2013-07-31 20:45:00,
2013-07-31 16:50:00,73.9,71.4,29.97,West,276,0.0,0.0,92,0.00,,,0.14,LWC V2.00 B2112,2013-07-31 20:50:00,
2013-07-31 16:55:00,73.7,71.2,29.97,West,276,0.0,0.0,92,0.00,,,0.14,LWC V2.00 B2112,2013-07-31 20:55:00,
2013-07-31 17:00:00,73.5,71.0,29.97,SSW,194,0.0,0.0,92,0.00,,,0.14,LWC V2.00 B2112,2013-07-31 21:00:00,
2013-07-31 17:05:00,73.2,70.7,29.98,SSW,193,0.0,0.0,92,0.00,,,0.14,LWC V2.00 B2112,2013-07-31 21:05:00,
2013-07-31 17:10:00,72.8,70.0,29.98,SW,224,0.0,0.0,91,0.00,,,0.14,LWC V2.00 B2112,2013-07-31 21:10:00,
2013-07-31 17:15:00,72.3,69.2,29.98,SSE,149,0.0,0.0,90,0.00,,,0.14,LWC V2.00 B2112,2013-07-31 21:15:00,
2013-07-31 17:20:00,72.0,69.2,29.98,SSE,155,0.0,0.0,91,0.00,,,0.14,LWC V2.00 B2112,2013-07-31 21:20:00,
2013-07-31 17:25:00,71.6,68.8,29.98,SSE,155,0.0,0.0,91,0.00,,,0.15,LWC V2.00 B2112,2013-07-31 21:25:00,
2013-07-31 17:30:00,71.5,69.0,29.98,SSE,155,0.0,0.0,92,0.08,,,0.16,LWC V2.00 B2112,2013-07-31 21:30:00,
2013-07-31 17:35:00,71.3,68.8,29.97,SSE,155,0.0,0.0,92,0.19,,,0.17,LWC V2.00 B2112,2013-07-31 21:35:00,
2013-07-31 17:40:00,70.9,68.8,29.97,SSE,155,0.0,0.0,93,0.07,,,0.17,LWC V2.00 B2112,2013-07-31 21:40:00,
2013-07-31 17:45:00,70.9,69.1,29.97,SSE,155,0.0,0.0,94,0.04,,,0.17,LWC V2.00 B2112,2013-07-31 21:45:00,
2013-07-31 17:55:00,70.9,69.4,29.95,SSE,155,0.0,0.0,95,0.00,,,0.17,LWC V2.00 B2112,2013-07-31 21:55:00,
2013-07-31 18:00:00,71.1,69.9,29.95,SSE,155,0.0,0.0,96,0.00,,,0.17,LWC V2.00 B2112,2013-07-31 22:00:00,
2013-07-31 18:05:00,71.3,70.1,29.94,SSE,155,0.0,0.0,96,0.00,,,0.17,LWC V2.00 B2112,2013-07-31 22:05:00,
2013-07-31 18:10:00,71.5,70.3,29.94,SSE,155,0.0,0.0,96,0.00,,,0.17,LWC V2.00 B2112,2013-07-31 22:10:00,
2013-07-31 18:15:00,71.6,70.4,29.94,SSE,155,0.0,0.0,96,0.00,,,0.17,LWC V2.00 B2112,2013-07-31 22:15:00,
2013-07-31 18:20:00,71.6,70.4,29.94,SSE,155,0.0,0.0,96,0.00,,,0.17,LWC V2.00 B2112,2013-07-31 22:20:00,
2013-07-31 18:25:00,71.6,70.4,29.94,SSE,155,0.0,0.0,96,0.00,,,0.17,LWC V2.00 B2112,2013-07-31 22:25:00,
2013-07-31 18:30:00,71.6,70.7,29.94,SSE,155,0.0,0.0,97,0.00,,,0.17,LWC V2.00 B2112,2013-07-31 22:30:00,
2013-07-31 18:40:00,71.8,70.9,29.94,SSE,155,0.0,0.0,97,0.00,,,0.17,LWC V2.00 B2112,2013-07-31 22:40:00,
2013-07-31 18:45:00,71.8,70.9,29.94,SSE,155,0.0,0.0,97,0.00,,,0.17,LWC V2.00 B2112,2013-07-31 22:45:00,
2013-07-31 18:50:00,71.6,70.7,29.95,SSE,155,0.0,0.0,97,0.00,,,0.17,LWC V2.00 B2112,2013-07-31 22:50:00,
2013-07-31 18:55:00,71.8,70.9,29.95,SSE,155,0.0,0.0,97,0.00,,,0.17,LWC V2.00 B2112,2013-07-31 22:55:00,
2013-07-31 19:00:00,71.8,70.9,29.95,SSE,155,0.0,0.0,97,0.00,,,0.17,LWC V2.00 B2112,2013-07-31 23:00:00,
2013-07-31 19:05:00,71.6,70.7,29.95,SSE,155,0.0,0.0,97,0.00,,,0.17,LWC V2.00 B2112,2013-07-31 23:05:00,
2013-07-31 19:10:00,71.8,70.9,29.95,SSE,155,0.0,0.0,97,0.00,,,0.17,LWC V2.00 B2112,2013-07-31 23:10:00,
2013-07-31 19:15:00,71.8,70.9,29.95,SSE,155,0.0,0.0,97,0.00,,,0.17,LWC V2.00 B2112,2013-07-31 23:15:00,
2013-07-31 19:20:00,71.6,70.7,29.94,SSE,155,0.0,0.0,97,0.00,,,0.17,LWC V2.00 B2112,2013-07-31 23:20:00,
2013-07-31 19:25:00,71.6,70.7,29.94,SSE,155,0.0,0.0,97,0.00,,,0.17,LWC V2.00 B2112,2013-07-31 23:25:00,
2013-07-31 19:30:00,71.6,70.7,29.94,SSE,155,0.0,0.0,97,0.00,,,0.17,LWC V2.00 B2112,2013-07-31 23:30:00,
2013-07-31 19:35:00,71.8,71.2,29.94,SSE,155,0.0,0.0,98,0.00,,,0.17,LWC V2.00 B2112,2013-07-31 23:35:00,
2013-07-31 19:40:00,71.8,71.2,29.94,SSE,155,0.0,0.0,98,0.00,,,0.17,LWC V2.00 B2112,2013-07-31 23:40:00,
2013-07-31 19:45:00,71.8,71.2,29.94,SSE,155,0.0,0.0,98,0.00,,,0.17,LWC V2.00 B2112,2013-07-31 23:45:00,
2013-07-31 19:50:00,71.8,71.2,29.94,SSE,155,0.0,0.0,98,0.00,,,0.17,LWC V2.00 B2112,2013-07-31 23:50:00,
2013-07-31 19:55:00,71.8,71.2,29.94,SSE,155,0.0,0.0,98,0.00,,,0.17,LWC V2.00 B2112,2013-07-31 23:55:00,
2013-07-31 20:00:00,72.0,71.4,29.94,SSE,155,0.0,0.0,98,0.00,,,0.17,LWC V2.00 B2112,2013-08-01 00:00:00,
2013-07-31 20:05:00,72.0,71.4,29.95,SSE,155,0.0,0.0,98,0.00,,,0.17,LWC V2.00 B2112,2013-08-01 00:05:00,
2013-07-31 20:15:00,72.0,71.4,29.95,SSE,155,0.0,0.0,98,0.00,,,0.17,LWC V2.00 B2112,2013-08-01 00:15:00,
2013-07-31 20:20:00,72.0,71.4,29.95,SSE,155,0.0,0.0,98,0.00,,,0.17,LWC V2.00 B2112,2013-08-01 00:20:00,
2013-07-31 20:25:00,72.0,71.4,29.95,SSE,155,0.0,0.0,98,0.00,,,0.17,LWC V2.00 B2112,2013-08-01 00:25:00,
2013-07-31 20:30:00,72.1,71.5,29.95,SSE,155,0.0,0.0,98,0.00,,,0.17,LWC V2.00 B2112,2013-08-01 00:30:00,
2013-07-31 20:35:00,72.1,71.5,29.95,SSE,155,0.0,0.0,98,0.00,,,0.17,LWC V2.00 B2112,2013-08-01 00:35:00,
2013-07-31 20:40:00,72.1,71.5,29.95,SSE,155,0.0,0.0,98,0.00,,,0.17,LWC V2.00 B2112,2013-08-01 00:40:00,
2013-07-31 20:45:00,72.1,71.5,29.95,SSE,155,0.0,0.0,98,0.00,,,0.17,LWC V2.00 B2112,2013-08-01 00:45:00,
2013-07-31 20:50:00,72.1,71.5,29.95,SSE,155,0.0,0.0,98,0.00,,,0.17,LWC V2.00 B2112,2013-08-01 00:50:00,
2013-07-31 20:55:00,72.3,71.7,29.95,SSE,155,0.0,0.0,98,0.00,,,0.17,LWC V2.00 B2112,2013-08-01 00:55:00,
2013-07-31 21:00:00,72.3,71.7,29.95,SSE,155,0.0,0.0,98,0.00,,,0.17,LWC V2.00 B2112,2013-08-01 01:00:00,
2013-07-31 21:05:00,72.3,71.7,29.95,SSE,155,0.0,0.0,98,0.00,,,0.17,LWC V2.00 B2112,2013-08-01 01:05:00,
2013-07-31 21:10:00,72.5,71.9,29.95,SSE,155,0.0,0.0,98,0.00,,,0.17,LWC V2.00 B2112,2013-08-01 01:10:00,
2013-07-31 21:15:00,72.5,71.9,29.95,SSE,155,0.0,0.0,98,0.00,,,0.17,LWC V2.00 B2112,2013-08-01 01:15:00,
2013-07-31 21:20:00,72.5,72.2,29.95,SSE,155,0.0,0.0,99,0.00,,,0.17,LWC V2.00 B2112,2013-08-01 01:20:00,
2013-07-31 21:25:00,72.3,72.0,29.95,SSE,155,0.0,0.0,99,0.00,,,0.17,LWC V2.00 B2112,2013-08-01 01:25:00,
2013-07-31 21:30:00,72.5,72.2,29.95,SSE,155,0.0,0.0,99,0.00,,,0.17,LWC V2.00 B2112,2013-08-01 01:30:00,
2013-07-31 21:35:00,72.3,72.0,29.95,SSE,155,0.0,0.0,99,0.00,,,0.17,LWC V2.00 B2112,2013-08-01 01:35:00,
2013-07-31 21:40:00,72.3,72.0,29.95,SSE,155,0.0,0.0,99,0.00,,,0.17,LWC V2.00 B2112,2013-08-01 01:40:00,
2013-07-31 21:45:00,72.5,72.2,29.95,SSE,155,0.0,0.0,99,0.00,,,0.17,LWC V2.00 B2112,2013-08-01 01:45:00,
2013-07-31 21:50:00,72.5,72.2,29.95,SSE,155,0.0,0.0,99,0.00,,,0.17,LWC V2.00 B2112,2013-08-01 01:50:00,
2013-07-31 21:55:00,72.5,72.2,29.95,SSE,155,0.0,0.0,99,0.00,,,0.17,LWC V2.00 B2112,2013-08-01 01:55:00,
2013-07-31 22:00:00,72.5,72.2,29.95,SSE,155,0.0,0.0,99,0.00,,,0.17,LWC V2.00 B2112,2013-08-01 02:00:00,
2013-07-31 22:05:00,72.3,72.0,29.95,SSE,155,0.0,0.0,99,0.00,,,0.17,LWC V2.00 B2112,2013-08-01 02:05:00,
2013-07-31 22:10:00,72.3,72.0,29.95,SSE,155,0.0,0.0,99,0.00,,,0.17,LWC V2.00 B2112,2013-08-01 02:10:00,
2013-07-31 22:15:00,72.3,72.0,29.95,SSE,155,0.0,0.0,99,0.00,,,0.17,LWC V2.00 B2112,2013-08-01 02:15:00,
2013-07-31 22:20:00,72.3,72.0,29.94,SSE,155,0.0,0.0,99,0.00,,,0.17,LWC V2.00 B2112,2013-08-01 02:20:00,
2013-07-31 22:25:00,72.1,71.8,29.94,SSE,160,0.0,0.0,99,0.00,,,0.17,LWC V2.00 B2112,2013-08-01 02:25:00,
2013-07-31 22:30:00,72.1,71.5,29.94,ESE,107,0.0,0.0,98,0.00,,,0.17,LWC V2.00 B2112,2013-08-01 02:30:00,
2013-07-31 22:35:00,72.1,71.5,29.94,South,176,0.0,0.0,98,0.00,,,0.17,LWC V2.00 B2112,2013-08-01 02:35:00,
2013-07-31 22:40:00,72.0,71.4,29.94,South,189,0.0,0.0,98,0.00,,,0.17,LWC V2.00 B2112,2013-08-01 02:40:00,
2013-07-31 22:45:00,72.0,71.4,29.94,SW,232,0.0,0.0,98,0.00,,,0.17,LWC V2.00 B2112,2013-08-01 02:45:00,
2013-07-31 22:50:00,72.0,71.1,29.95,SSE,152,0.0,0.0,97,0.00,,,0.17,LWC V2.00 B2112,2013-08-01 02:50:00,
2013-07-31 22:55:00,72.0,71.1,29.95,SSE,152,0.0,0.0,97,0.00,,,0.17,LWC V2.00 B2112,2013-08-01 02:55:00,
2013-07-31 23:00:00,72.0,71.1,29.95,SSE,152,0.0,0.0,97,0.00,,,0.17,LWC V2.00 B2112,2013-08-01 03:00:00,
2013-07-31 23:05:00,71.8,70.9,29.93,SSE,152,0.0,0.0,97,0.00,,,0.17,LWC V2.00 B2112,2013-08-01 03:05:00,
2013-07-31 23:10:00,71.8,70.9,29.93,SSW,211,0.0,0.0,97,0.00,,,0.17,LWC V2.00 B2112,2013-08-01 03:10:00,
2013-07-31 23:15:00,71.8,70.6,29.93,SSW,210,0.0,0.0,96,0.00,,,0.17,LWC V2.00 B2112,2013-08-01 03:15:00,
2013-07-31 23:20:00,72.0,70.8,29.93,SSE,151,0.0,0.0,96,0.00,,,0.17,LWC V2.00 B2112,2013-08-01 03:20:00,
2013-07-31 23:25:00,72.0,70.8,29.93,SSE,151,0.0,0.0,96,0.00,,,0.17,LWC V2.00 B2112,2013-08-01 03:25:00,
2013-07-31 23:30:00,72.0,70.8,29.93,SSW,198,0.0,0.0,96,0.00,,,0.18,LWC V2.00 B2112,2013-08-01 03:30:00,
2013-07-31 23:35:00,72.0,70.8,29.92,SSW,198,0.0,0.0,96,0.00,,,0.18,LWC V2.00 B2112,2013-08-01 03:35:00,
2013-07-31 23:40:00,72.1,70.9,29.92,ESE,123,0.0,0.0,96,0.05,,,0.19,LWC V2.00 B2112,2013-08-01 03:40:00,
2013-07-31 23:45:00,72.0,70.8,29.92,ESE,123,0.0,0.0,96,0.05,,,0.19,LWC V2.00 B2112,2013-08-01 03:45:00,
2013-07-31 23:50:00,72.0,70.8,29.93,NNE,25,0.0,0.0,96,0.06,,,0.20,LWC V2.00 B2112,2013-08-01 03:50:00,
2013-07-31 23:55:00,72.0,71.1,29.93,NNE,25,0.0,0.0,97,0.06,,,0.20,LWC V2.00 B2112,2013-08-01 03:55:00,